PBO Station Position Time Series. Reference Frame : NAM14
Format Version,1.1.0
4-character ID,P377
Station name,MemorialPkOR2006
Begin Date, 2006-07-15
End Date, 2019-10-07
Release Date, 2019-10-08
Reference position, 44.0521186899 North Latitude, -122.8870583711 East Longitude, 142.41155 meters elevation,
Date, North (mm), East (mm), Vertical (mm), North Std. Deviation (mm), East Std. Deviation (mm),              Vertical Std. Deviation (mm), Quality,
2006-07-15,0.00, 0.00, 0.00, 2.21, 1.61, 7.46, repro,
2006-07-16,0.93, 1.06, -8.47, 2.22, 1.61, 7.46, repro,
2006-07-17,0.11, 0.82, -3.67, 2.22, 1.63, 7.56, repro,
2006-07-18,-0.95, 0.97, -5.86, 2.13, 1.55, 7.09, repro,
2006-07-19,1.49, 0.88, -4.65, 2.15, 1.56, 7.14, repro,
2006-07-20,-0.65, 0.96, -0.73, 2.15, 1.58, 7.19, repro,
2006-07-21,2.74, 0.74, -3.71, 2.17, 1.57, 7.20, repro,
2006-07-22,0.03, 0.88, -1.21, 2.18, 1.61, 7.27, repro,
2006-07-23,-0.82, 1.48, 0.86, 2.13, 1.55, 7.08, repro,
2006-07-24,1.81, 1.04, 1.99, 2.14, 1.57, 7.14, repro,
2006-07-25,1.16, 0.63, 1.77, 2.14, 1.57, 7.13, repro,
2006-07-26,1.95, 0.40, 2.83, 2.14, 1.57, 7.16, repro,
2006-07-27,1.25, 0.85, 1.30, 2.13, 1.56, 7.13, repro,
2006-07-28,1.87, 1.80, -3.50, 2.13, 1.55, 7.06, repro,
2006-07-29,-0.26, 0.45, -6.93, 2.12, 1.55, 7.02, repro,
2006-07-30,-0.00, 0.74, -1.54, 2.17, 1.62, 7.26, repro,
2006-07-31,1.32, 0.84, 5.19, 2.14, 1.56, 7.14, repro,
2006-08-01,1.11, 0.34, 3.10, 2.15, 1.56, 7.17, repro,
2006-08-02,0.81, 0.43, 2.10, 2.17, 1.61, 7.41, repro,
2006-08-03,0.73, 1.32, -3.54, 2.16, 1.60, 7.32, repro,
2006-08-04,0.15, 2.74, -5.00, 2.23, 1.65, 7.47, repro,
2006-08-05,-0.05, 0.30, 4.85, 2.23, 1.68, 7.58, repro,
2006-08-06,0.65, 0.91, -4.30, 2.18, 1.62, 7.44, repro,
2006-08-07,0.28, 1.55, 3.15, 2.19, 1.62, 7.46, repro,
2006-08-08,2.26, -0.30, -10.69, 2.15, 1.56, 7.14, repro,
2006-08-09,-0.91, 1.08, -2.11, 2.21, 1.59, 7.22, repro,
2006-08-10,0.48, -0.26, 1.01, 2.15, 1.57, 7.17, repro,
2006-08-11,-0.35, 0.60, 2.62, 2.13, 1.57, 7.15, repro,
2006-08-12,0.55, 1.56, 2.84, 2.14, 1.57, 7.18, repro,
2006-08-13,-0.92, 1.45, 5.17, 2.14, 1.56, 7.17, repro,
2006-08-14,-0.99, 0.87, -0.08, 2.12, 1.56, 7.07, repro,
2006-08-15,0.54, 1.13, 3.48, 2.21, 1.59, 7.21, repro,
2006-08-16,-0.34, 0.80, 1.17, 2.13, 1.56, 7.13, repro,
2006-08-17,1.88, 0.91, -1.86, 2.13, 1.57, 7.13, repro,
2006-08-18,-0.26, 1.65, -0.98, 2.21, 1.66, 7.40, repro,
2006-08-19,-0.21, 0.29, -3.73, 2.14, 1.55, 7.07, repro,
2006-08-20,-0.82, 0.66, 6.78, 2.14, 1.57, 7.10, repro,
2006-08-21,0.10, 1.89, 4.84, 2.14, 1.59, 7.22, repro,
2006-08-22,0.36, 0.87, 2.82, 2.14, 1.59, 7.21, repro,
2006-08-23,1.51, 1.79, 0.72, 2.14, 1.59, 7.17, repro,
2006-08-24,-1.16, 0.63, -2.10, 2.19, 1.63, 7.43, repro,
2006-08-25,0.03, 2.22, 2.34, 2.17, 1.63, 7.40, repro,
2006-08-26,-1.14, 1.28, 2.79, 2.21, 1.66, 7.61, repro,
2006-08-27,0.45, 0.13, 1.78, 2.22, 1.68, 7.62, repro,
2006-08-28,0.37, 1.90, 0.25, 2.22, 1.68, 7.63, repro,
2006-08-29,0.71, 0.08, -0.28, 2.19, 1.66, 7.50, repro,
2006-08-30,0.67, -0.21, -1.73, 2.21, 1.68, 7.58, repro,
2006-08-31,0.49, 1.34, -4.70, 2.23, 1.68, 7.60, repro,
2006-09-01,0.73, 1.32, -1.64, 2.24, 1.69, 7.64, repro,
2006-09-02,-0.74, 1.37, 0.38, 2.22, 1.70, 7.68, repro,
2006-09-03,0.44, 0.79, 1.85, 2.20, 1.68, 7.56, repro,
2006-09-04,1.70, 0.86, -4.54, 2.27, 1.70, 7.68, repro,
2006-09-05,1.40, 1.45, -8.70, 2.30, 1.70, 7.78, repro,
2006-09-06,0.47, 0.47, -1.01, 2.24, 1.69, 7.73, repro,
2006-09-07,-0.69, 0.69, 5.28, 2.26, 1.73, 7.92, repro,
2006-09-08,0.22, 0.26, 2.62, 2.26, 1.72, 7.89, repro,
2006-09-09,0.63, -0.63, 2.89, 2.18, 1.63, 7.35, repro,
2006-09-10,0.28, 0.34, 3.40, 2.17, 1.63, 7.34, repro,
2006-09-11,-0.03, 0.43, 2.03, 2.20, 1.64, 7.45, repro,
2006-09-12,0.14, 0.69, 1.06, 2.20, 1.64, 7.44, repro,
2006-09-13,0.29, 0.99, 7.63, 2.18, 1.63, 7.35, repro,
2006-09-14,2.38, 0.52, 5.99, 2.27, 1.72, 7.63, repro,
2006-09-15,-1.20, 0.16, 8.34, 2.22, 1.61, 7.32, repro,
2006-09-16,1.21, -0.02, 5.87, 2.15, 1.59, 7.20, repro,
2006-09-17,-0.97, 0.05, 7.01, 2.17, 1.59, 7.28, repro,
2006-09-18,0.46, -0.04, 5.13, 2.17, 1.61, 7.34, repro,
2006-09-19,-0.23, 0.50, 3.82, 2.14, 1.59, 7.20, repro,
2006-09-20,0.52, 1.10, 1.61, 2.13, 1.58, 7.16, repro,
2006-09-21,0.86, 0.19, 8.68, 2.17, 1.64, 7.37, repro,
2006-09-22,0.10, -1.16, 3.37, 2.26, 1.68, 7.57, repro,
2006-09-23,-0.17, 0.44, 0.56, 2.23, 1.64, 7.45, repro,
2006-09-24,-1.37, 1.38, 3.11, 2.21, 1.62, 7.34, repro,
2006-09-25,0.76, 0.56, -0.64, 2.22, 1.63, 7.46, repro,
2006-09-26,0.94, 0.30, -1.01, 2.20, 1.61, 7.24, repro,
2006-09-27,-0.10, 0.19, -1.24, 2.21, 1.63, 7.29, repro,
2006-09-28,-0.55, 1.08, 3.16, 2.18, 1.61, 7.32, repro,
2006-09-29,-0.46, 1.03, 9.39, 2.19, 1.62, 7.31, repro,
2006-09-30,-0.08, 0.65, 6.13, 2.21, 1.65, 7.51, repro,
2006-10-01,-0.93, 0.62, 4.67, 2.17, 1.60, 7.24, repro,
2006-10-02,0.50, -0.51, 4.94, 2.22, 1.68, 7.38, repro,
2006-10-03,1.45, 0.18, 0.34, 2.27, 1.72, 7.68, repro,
2006-10-04,0.97, 0.87, 6.97, 2.18, 1.62, 7.31, repro,
2006-10-05,0.55, 0.61, 2.10, 2.18, 1.60, 7.25, repro,
2006-10-06,0.21, 0.61, -1.32, 2.17, 1.60, 7.22, repro,
2006-10-07,-0.67, -0.55, -0.69, 2.33, 1.77, 7.89, repro,
2006-10-08,-1.10, 0.04, 0.74, 2.21, 1.66, 7.42, repro,
2006-10-09,1.07, 0.37, 3.08, 2.23, 1.67, 7.53, repro,
2006-10-10,0.42, -0.30, 3.53, 2.20, 1.64, 7.48, repro,
2006-10-11,-0.67, 1.25, 0.59, 2.21, 1.65, 7.52, repro,
2006-10-12,-0.13, 0.58, 7.93, 2.17, 1.60, 7.22, repro,
2006-10-13,0.42, -0.30, 3.68, 2.14, 1.59, 7.19, repro,
2006-10-14,0.59, -0.11, 2.05, 2.18, 1.64, 7.38, repro,
2006-10-15,-0.73, -0.45, 18.49, 2.24, 1.70, 7.57, repro,
2006-10-16,-1.14, 0.42, 17.24, 2.16, 1.60, 7.26, repro,
2006-10-17,0.26, 0.29, 14.16, 2.19, 1.66, 7.60, repro,
2006-10-18,0.56, 0.54, -0.11, 2.16, 1.61, 7.40, repro,
2006-10-19,-0.60, 1.11, 4.65, 2.34, 1.70, 7.86, repro,
2006-10-20,1.40, 0.36, 5.00, 2.48, 1.85, 8.79, repro,
2006-10-21,0.07, 1.06, 0.01, 2.31, 1.69, 7.81, repro,
2006-10-22,-0.41, 1.03, 0.42, 2.18, 1.65, 7.51, repro,
2006-10-23,-1.18, -0.45, -1.68, 2.27, 1.69, 7.72, repro,
2006-10-24,-1.46, 0.67, 5.70, 2.23, 1.66, 7.52, repro,
2006-10-25,0.50, 0.62, 1.66, 2.26, 1.70, 7.68, repro,
2006-10-26,0.99, 0.56, 2.99, 2.25, 1.71, 7.78, repro,
2006-10-27,0.52, 0.68, -1.90, 2.15, 1.63, 7.33, repro,
2006-10-28,-0.47, 1.30, -0.73, 2.31, 1.71, 7.81, repro,
2006-10-29,0.20, 0.50, 5.94, 2.14, 1.61, 7.34, repro,
2006-10-30,-1.04, 0.79, 6.38, 2.09, 1.58, 7.14, repro,
2006-10-31,1.54, 1.05, 7.20, 2.15, 1.61, 7.32, repro,
2006-11-01,0.50, -0.65, 3.02, 2.29, 1.67, 7.81, repro,
2006-11-02,1.92, 0.03, 11.72, 2.15, 1.62, 7.37, repro,
2006-11-03,1.51, 0.99, 1.94, 2.19, 1.68, 7.60, repro,
2006-11-04,0.63, 0.78, 2.17, 2.22, 1.68, 7.56, repro,
2006-11-05,-0.49, 1.20, 0.03, 2.27, 1.68, 7.63, repro,
2006-11-06,1.78, 1.70, -3.71, 2.13, 1.59, 7.24, repro,
2006-11-07,4.08, 3.15, -0.73, 2.31, 1.74, 7.76, repro,
2006-11-08,0.77, 1.22, 2.35, 2.25, 1.67, 7.54, repro,
2006-11-09,2.01, 0.80, 2.76, 2.31, 1.72, 7.72, repro,
2006-11-10,0.13, 0.12, -2.55, 2.20, 1.61, 7.32, repro,
2006-11-11,2.43, 0.64, -2.98, 2.25, 1.66, 7.49, repro,
2006-11-12,0.15, 1.62, -1.33, 2.33, 1.72, 7.72, repro,
2006-11-13,1.59, 2.47, 8.43, 2.27, 1.68, 7.52, repro,
2006-11-14,1.13, 0.20, 4.39, 2.12, 1.59, 7.16, repro,
2006-11-15,1.44, 1.37, -1.34, 2.11, 1.58, 7.15, repro,
2006-11-16,2.37, 1.16, 1.81, 2.10, 1.58, 7.13, repro,
2006-11-17,1.01, 0.13, -4.69, 2.11, 1.59, 7.17, repro,
2006-11-18,1.34, 1.29, -5.46, 2.11, 1.58, 7.16, repro,
2006-11-19,-0.94, -0.41, -11.33, 2.11, 1.60, 7.21, repro,
2006-11-20,-0.03, 1.69, -5.90, 2.12, 1.59, 7.19, repro,
2006-11-21,-0.60, 1.99, 1.26, 2.09, 1.58, 7.07, repro,
2006-11-22,0.31, 1.11, -1.41, 2.11, 1.60, 7.18, repro,
2006-11-23,-0.22, 2.20, -9.20, 2.15, 1.64, 7.39, repro,
2006-11-24,1.37, 1.97, -7.79, 2.20, 1.68, 7.63, repro,
2006-11-25,1.54, 0.43, -4.55, 2.13, 1.61, 7.18, repro,
2006-11-26,0.39, 1.55, -4.90, 2.13, 1.60, 7.15, repro,
2006-11-27,0.34, 1.35, -7.37, 2.15, 1.60, 7.16, repro,
2006-11-28,-0.86, 1.27, -4.32, 2.11, 1.59, 7.16, repro,
2006-11-29,1.17, 1.25, -6.52, 2.10, 1.60, 7.18, repro,
2006-11-30,1.35, 1.75, -7.76, 2.09, 1.59, 7.14, repro,
2006-12-01,1.23, 1.83, -12.97, 2.10, 1.59, 7.17, repro,
2006-12-02,0.90, 1.77, -13.75, 2.09, 1.58, 7.10, repro,
2006-12-03,1.07, 1.97, -12.62, 2.11, 1.59, 7.12, repro,
2006-12-04,0.36, 1.32, -12.39, 2.17, 1.62, 7.29, repro,
2006-12-05,1.09, 2.19, -12.98, 2.13, 1.66, 7.33, repro,
2006-12-06,1.20, 0.85, -10.47, 2.17, 1.72, 7.52, repro,
2006-12-07,0.42, 1.90, -7.49, 2.12, 1.65, 7.28, repro,
2006-12-08,0.71, 1.22, -4.84, 2.12, 1.64, 7.24, repro,
2006-12-09,2.01, 0.61, 0.33, 2.21, 1.73, 7.56, repro,
2006-12-10,0.48, 1.59, 1.85, 2.18, 1.67, 7.39, repro,
2006-12-11,0.54, 1.58, 2.73, 2.12, 1.61, 7.20, repro,
2006-12-12,-0.05, 1.80, -11.74, 2.16, 1.66, 7.39, repro,
2006-12-13,-0.51, 2.73, -7.55, 2.13, 1.67, 7.44, repro,
2006-12-14,1.07, 1.05, 3.08, 2.08, 1.61, 7.15, repro,
2006-12-15,1.81, 1.42, 1.45, 2.17, 1.70, 7.49, repro,
2006-12-16,1.12, 2.46, -5.36, 2.18, 1.69, 7.40, repro,
2006-12-17,0.83, 1.56, -3.53, 2.17, 1.75, 7.70, repro,
2006-12-18,1.49, 1.88, -9.63, 2.40, 1.87, 8.48, repro,
2006-12-19,0.85, 0.98, -5.41, 2.17, 1.75, 7.61, repro,
2006-12-20,1.30, 0.39, -6.23, 2.19, 1.77, 7.69, repro,
2006-12-21,1.09, 1.91, -6.53, 2.12, 1.71, 7.42, repro,
2006-12-22,1.40, 2.20, -5.14, 2.17, 1.75, 7.62, repro,
2006-12-23,0.58, 2.62, -10.81, 2.16, 1.69, 7.52, repro,
2006-12-24,0.81, 2.29, -12.14, 2.08, 1.61, 7.13, repro,
2006-12-25,0.30, 1.75, -8.72, 2.15, 1.72, 7.47, repro,
2006-12-26,-0.71, 1.11, -8.74, 2.16, 1.71, 7.50, repro,
2006-12-27,-0.49, 2.12, -4.25, 2.15, 1.71, 7.49, repro,
2006-12-28,0.69, 1.47, -6.63, 2.26, 1.88, 8.17, repro,
2006-12-29,2.42, 1.29, -20.36, 2.15, 1.70, 7.46, repro,
2006-12-30,1.41, 1.29, -8.17, 2.15, 1.70, 7.46, repro,
2006-12-31,2.15, 1.05, -9.81, 2.30, 1.82, 7.96, repro,
2007-01-01,0.60, 2.54, -7.17, 2.21, 1.77, 7.70, repro,
2007-01-02,1.63, 1.82, -6.17, 2.28, 1.89, 8.18, repro,
2007-01-03,1.40, 1.32, -1.62, 2.08, 1.62, 7.18, repro,
2007-01-04,-0.86, 0.14, 2.00, 2.08, 1.63, 7.20, repro,
2007-01-05,1.16, 1.39, -4.66, 2.18, 1.79, 7.69, repro,
2007-01-06,0.71, 0.18, -14.06, 2.10, 1.68, 7.27, repro,
2007-01-07,0.14, 0.00, -16.87, 2.16, 1.69, 7.31, repro,
2007-01-08,-0.82, 1.77, -14.96, 2.16, 1.66, 7.32, repro,
2007-01-09,0.51, 1.47, -14.55, 2.13, 1.63, 7.20, repro,
2007-01-10,0.21, 1.99, -4.23, 2.15, 1.61, 7.13, repro,
2007-01-11,-0.19, 2.74, -4.36, 2.20, 1.63, 7.28, repro,
2007-01-12,1.18, 0.61, -12.00, 2.11, 1.58, 7.09, repro,
2007-01-13,0.92, 1.01, -14.69, 2.06, 1.56, 6.96, repro,
2007-01-14,1.04, 0.81, -17.41, 2.05, 1.54, 6.86, repro,
2007-01-15,1.54, 1.63, -17.79, 2.05, 1.57, 6.98, repro,
2007-01-16,2.99, 0.23, -14.75, 2.10, 1.57, 7.00, repro,
2007-01-17,2.51, 0.47, -15.79, 2.08, 1.60, 7.06, repro,
2007-01-18,1.73, 1.33, -22.26, 2.13, 1.65, 7.24, repro,
2007-01-19,1.80, 1.27, -16.79, 2.09, 1.56, 7.06, repro,
2007-01-20,0.78, 1.25, -8.05, 2.11, 1.58, 7.14, repro,
2007-01-21,0.75, 2.08, -5.19, 2.05, 1.56, 6.91, repro,
2007-01-22,1.39, 2.13, -8.00, 2.06, 1.56, 6.91, repro,
2007-01-23,1.52, 1.16, -14.15, 2.06, 1.56, 6.89, repro,
2007-01-24,0.26, 1.42, -15.93, 2.05, 1.55, 6.87, repro,
2007-01-25,0.61, 0.77, -13.02, 2.09, 1.60, 6.98, repro,
2007-01-26,1.60, 1.55, -12.86, 2.05, 1.55, 6.85, repro,
2007-01-27,1.23, 1.41, -11.19, 2.05, 1.55, 6.87, repro,
2007-01-28,1.22, 2.36, -9.24, 2.06, 1.55, 6.87, repro,
2007-01-29,2.01, 1.15, -12.85, 2.05, 1.55, 6.81, repro,
2007-01-30,1.61, 1.47, -10.19, 2.04, 1.54, 6.81, repro,
2007-01-31,0.43, 0.63, -5.21, 2.04, 1.55, 6.82, repro,
2007-02-01,0.28, 1.97, -5.96, 2.10, 1.59, 7.04, repro,
2007-02-02,1.01, 1.61, -6.08, 2.10, 1.58, 7.03, repro,
2007-02-03,1.31, 1.05, -8.41, 2.11, 1.59, 7.06, repro,
2007-02-04,1.10, 1.51, -7.51, 2.05, 1.55, 6.80, repro,
2007-02-05,0.98, 1.61, -11.45, 2.05, 1.55, 6.80, repro,
2007-02-06,0.78, 1.59, -13.20, 2.05, 1.55, 6.83, repro,
2007-02-07,2.51, 1.06, -9.94, 2.06, 1.56, 6.86, repro,
2007-02-08,1.34, 2.39, -8.44, 2.09, 1.61, 7.06, repro,
2007-02-09,2.72, 2.15, -7.93, 2.07, 1.61, 7.00, repro,
2007-02-10,1.89, 2.32, -8.25, 2.05, 1.55, 6.80, repro,
2007-02-11,1.53, 1.33, -0.49, 2.04, 1.56, 6.84, repro,
2007-02-12,0.87, 1.53, -9.06, 2.05, 1.56, 6.85, repro,
2007-02-13,1.10, 1.63, -10.48, 2.05, 1.56, 6.89, repro,
2007-02-14,0.41, 1.74, -9.07, 2.06, 1.56, 6.90, repro,
2007-02-15,0.59, 2.97, -6.44, 2.05, 1.55, 6.81, repro,
2007-02-16,0.32, 2.44, -5.98, 2.04, 1.55, 6.84, repro,
2007-02-17,0.43, 2.70, -7.56, 2.10, 1.59, 7.02, repro,
2007-02-18,-0.02, 1.88, -2.90, 2.05, 1.56, 6.94, repro,
2007-02-19,0.18, 1.63, 1.01, 2.05, 1.56, 6.89, repro,
2007-02-20,1.20, 3.22, 0.44, 2.09, 1.61, 7.09, repro,
2007-02-21,1.41, 1.06, -4.69, 2.05, 1.55, 6.84, repro,
2007-02-22,2.03, 1.74, -5.14, 2.06, 1.56, 6.88, repro,
2007-02-23,1.76, 2.59, -10.01, 2.15, 1.65, 7.26, repro,
2007-02-24,0.41, 1.79, -5.11, 2.05, 1.56, 6.87, repro,
2007-02-25,0.61, 2.35, -0.70, 2.05, 1.56, 6.86, repro,
2007-02-26,0.15, 2.36, -4.96, 2.06, 1.56, 6.89, repro,
2007-02-27,2.23, 2.50, -2.04, 2.07, 1.56, 6.90, repro,
2007-02-28,-0.20, 2.68, -2.17, 2.06, 1.56, 6.85, repro,
2007-03-01,0.29, 3.23, -12.91, 2.12, 1.62, 7.06, repro,
2007-03-02,1.65, 1.40, -17.32, 2.12, 1.63, 7.14, repro,
2007-03-03,1.26, 2.86, -13.96, 2.10, 1.60, 7.02, repro,
2007-03-04,0.10, 2.84, -15.17, 2.11, 1.59, 7.00, repro,
2007-03-05,0.56, 1.42, -8.93, 2.12, 1.60, 7.08, repro,
2007-03-06,0.27, 2.15, -9.41, 2.09, 1.60, 7.02, repro,
2007-03-07,0.30, 2.00, -7.81, 2.10, 1.60, 7.02, repro,
2007-03-08,1.02, 2.64, -10.57, 2.11, 1.61, 7.06, repro,
2007-03-09,0.32, 1.22, -9.83, 2.10, 1.59, 6.96, repro,
2007-03-10,-0.36, 1.51, -4.82, 2.18, 1.63, 7.24, repro,
2007-03-11,1.20, 0.69, -13.03, 2.12, 1.59, 7.05, repro,
2007-03-12,2.64, 1.74, -14.35, 2.10, 1.59, 7.00, repro,
2007-03-13,1.19, 2.04, -8.75, 2.07, 1.57, 6.95, repro,
2007-03-14,0.93, 1.81, -11.77, 2.07, 1.55, 6.85, repro,
2007-03-15,-0.22, 1.75, -15.85, 2.11, 1.57, 6.96, repro,
2007-03-16,0.06, 1.14, -11.61, 2.13, 1.58, 7.06, repro,
2007-03-17,1.72, 0.74, -9.20, 2.09, 1.56, 6.98, repro,
2007-03-18,0.61, 2.70, -7.74, 2.07, 1.56, 6.87, repro,
2007-03-19,1.24, 2.16, -4.68, 2.08, 1.56, 6.90, repro,
2007-03-20,-0.56, 2.52, -5.40, 2.17, 1.58, 6.96, repro,
2007-03-21,-0.22, 1.79, -2.32, 2.18, 1.57, 6.96, repro,
2007-03-22,-0.79, 1.39, -1.21, 2.10, 1.54, 6.92, repro,
2007-03-23,-0.10, 1.06, -2.87, 2.08, 1.56, 6.92, repro,
2007-03-24,-0.75, 1.35, -4.87, 2.08, 1.56, 6.88, repro,
2007-03-25,1.69, 2.37, -1.42, 2.08, 1.54, 6.83, repro,
2007-03-26,0.65, 0.85, -6.58, 2.10, 1.55, 6.90, repro,
2007-03-27,-0.20, 2.46, -8.76, 2.15, 1.57, 7.04, repro,
2007-03-28,0.83, 2.11, -15.14, 2.12, 1.56, 6.97, repro,
2007-03-29,1.14, 2.53, -12.86, 2.06, 1.55, 6.85, repro,
2007-03-30,1.96, 2.32, -13.26, 2.07, 1.55, 6.82, repro,
2007-03-31,0.82, 3.03, -6.63, 2.08, 1.55, 6.86, repro,
2007-04-01,0.79, 2.28, -9.84, 2.10, 1.55, 6.90, repro,
2007-04-02,1.12, 1.90, -7.93, 2.08, 1.55, 6.86, repro,
2007-04-03,0.75, 1.65, -9.81, 2.13, 1.58, 7.00, repro,
2007-04-04,0.73, 1.75, -8.48, 2.14, 1.64, 7.20, repro,
2007-04-05,0.07, 1.80, -14.15, 2.16, 1.63, 7.16, repro,
2007-04-06,0.96, 2.78, -12.53, 2.12, 1.59, 7.00, repro,
2007-04-07,-0.15, 1.57, -3.03, 2.16, 1.60, 7.09, repro,
2007-04-08,1.37, 1.90, -4.12, 2.08, 1.53, 6.79, repro,
2007-04-09,2.03, 0.92, -6.36, 2.08, 1.54, 6.85, repro,
2007-04-10,0.47, 2.35, -11.19, 2.13, 1.57, 6.97, repro,
2007-04-11,0.46, 2.31, -5.03, 2.09, 1.54, 6.84, repro,
2007-04-12,0.20, 2.46, -4.76, 2.09, 1.55, 6.89, repro,
2007-04-13,0.38, 2.01, -5.09, 2.09, 1.53, 6.83, repro,
2007-04-14,-0.15, 0.89, -3.36, 2.13, 1.61, 7.12, repro,
2007-04-15,-0.41, 2.66, -7.72, 2.10, 1.54, 6.88, repro,
2007-04-16,-0.10, 1.99, -5.97, 2.09, 1.54, 6.86, repro,
2007-04-17,0.50, 0.77, -7.21, 2.09, 1.55, 6.90, repro,
2007-04-18,2.10, 3.07, -3.31, 2.08, 1.54, 6.85, repro,
2007-04-19,1.94, 1.46, -8.13, 2.11, 1.55, 6.91, repro,
2007-04-20,0.80, 1.47, -5.37, 2.09, 1.54, 6.85, repro,
2007-04-21,0.33, 1.41, -3.20, 2.09, 1.54, 6.85, repro,
2007-04-22,0.53, 1.66, -9.38, 2.09, 1.54, 6.86, repro,
2007-04-23,1.44, 2.44, -9.02, 2.13, 1.56, 6.99, repro,
2007-04-24,2.14, 2.38, -15.52, 2.13, 1.57, 7.01, repro,
2007-04-25,-0.10, 2.53, -7.06, 2.12, 1.56, 6.99, repro,
2007-04-26,0.04, 2.29, -11.43, 2.10, 1.54, 6.90, repro,
2007-04-27,0.72, 2.15, -10.54, 2.08, 1.53, 6.84, repro,
2007-04-28,0.68, 2.10, -13.30, 2.11, 1.54, 6.94, repro,
2007-04-29,0.78, 2.08, -13.89, 2.10, 1.54, 6.92, repro,
2007-04-30,1.22, 2.00, -7.34, 2.10, 1.54, 6.91, repro,
2007-05-01,-0.15, 2.09, -9.12, 2.10, 1.54, 6.93, repro,
2007-05-02,-0.11, 4.03, -13.90, 2.17, 1.56, 7.12, repro,
2007-05-03,0.57, 2.07, -6.38, 2.16, 1.54, 7.04, repro,
2007-05-04,0.12, 1.59, -8.42, 2.11, 1.53, 6.92, repro,
2007-05-05,1.33, 2.15, -8.10, 2.15, 1.59, 7.12, repro,
2007-05-06,0.38, 3.13, -13.38, 2.11, 1.53, 6.92, repro,
2007-05-07,-0.94, 1.51, -11.48, 2.09, 1.51, 6.84, repro,
2007-05-08,1.21, 2.11, -10.81, 2.11, 1.53, 6.89, repro,
2007-05-09,0.63, 1.38, -4.03, 2.11, 1.53, 6.93, repro,
2007-05-10,1.25, 2.47, -12.92, 2.22, 1.60, 7.36, repro,
2007-05-11,0.40, 2.40, -14.47, 2.21, 1.60, 7.30, repro,
2007-05-12,0.99, 2.31, -10.43, 2.11, 1.53, 6.96, repro,
2007-05-13,0.85, 2.22, -14.03, 2.16, 1.58, 7.07, repro,
2007-05-14,1.64, 2.14, -13.39, 2.14, 1.56, 7.06, repro,
2007-05-15,1.62, 2.77, -9.76, 2.13, 1.54, 7.01, repro,
2007-05-16,1.39, 2.18, -7.43, 2.15, 1.54, 7.04, repro,
2007-05-17,0.75, 1.76, -5.34, 2.15, 1.56, 7.06, repro,
2007-05-18,1.53, 2.11, -9.77, 2.17, 1.61, 7.16, repro,
2007-05-19,0.63, 0.78, -8.67, 2.16, 1.59, 7.07, repro,
2007-05-20,1.70, 1.48, -5.91, 2.19, 1.62, 7.21, repro,
2007-05-21,1.76, 3.06, -9.81, 2.17, 1.57, 7.12, repro,
2007-05-22,1.02, 2.43, -8.06, 2.15, 1.56, 7.03, repro,
2007-05-23,1.15, 2.08, -12.56, 2.14, 1.55, 6.98, repro,
2007-05-24,-0.74, 1.41, -6.14, 2.24, 1.74, 7.55, repro,
2007-05-25,0.64, 1.79, -10.89, 2.12, 1.55, 6.94, repro,
2007-05-26,0.71, 2.89, -9.90, 2.18, 1.60, 7.18, repro,
2007-05-27,0.62, 0.70, -1.42, 2.19, 1.61, 7.27, repro,
2007-05-28,0.65, 2.66, -4.53, 2.12, 1.53, 6.89, repro,
2007-05-29,0.85, 1.78, -10.66, 2.12, 1.53, 6.90, repro,
2007-05-30,1.33, 2.50, -14.23, 2.19, 1.61, 7.17, repro,
2007-05-31,0.97, 1.20, -12.18, 2.16, 1.59, 7.08, repro,
2007-06-01,-0.25, 2.24, -6.17, 2.13, 1.54, 6.99, repro,
2007-06-02,2.91, 1.71, -13.55, 2.13, 1.55, 6.99, repro,
2007-06-03,1.88, 1.95, -4.02, 2.12, 1.54, 6.92, repro,
2007-06-04,1.18, 0.94, -10.75, 2.13, 1.56, 7.02, repro,
2007-06-05,0.49, 1.51, -2.60, 2.15, 1.55, 7.01, repro,
2007-06-06,0.36, 1.09, 1.13, 2.12, 1.54, 6.95, repro,
2007-06-07,0.72, 1.92, -6.08, 2.12, 1.55, 6.96, repro,
2007-06-08,0.85, 2.42, -9.17, 2.12, 1.53, 6.89, repro,
2007-06-09,0.95, 1.16, -3.81, 2.11, 1.54, 6.87, repro,
2007-06-10,0.92, 0.83, -8.20, 2.10, 1.54, 6.85, repro,
2007-06-11,1.14, 1.49, -10.02, 2.14, 1.62, 7.14, repro,
2007-06-12,1.66, 2.76, -11.50, 2.14, 1.58, 7.08, repro,
2007-06-13,0.53, 2.91, -6.56, 2.18, 1.59, 7.15, repro,
2007-06-14,3.29, 1.65, -15.01, 2.16, 1.58, 7.06, repro,
2007-06-15,1.65, 2.88, -12.39, 2.09, 1.54, 6.89, repro,
2007-06-16,0.98, 2.01, -11.38, 2.09, 1.53, 6.82, repro,
2007-06-17,1.41, 2.52, -9.16, 2.10, 1.54, 6.88, repro,
2007-06-18,1.87, 3.08, -3.56, 2.12, 1.55, 6.99, repro,
2007-06-19,2.29, 2.98, -12.83, 2.12, 1.54, 6.93, repro,
2007-06-20,2.14, 1.71, -10.86, 2.12, 1.54, 6.95, repro,
2007-06-21,2.16, 2.31, -8.39, 2.09, 1.53, 6.85, repro,
2007-06-22,2.39, 2.29, -12.22, 2.11, 1.54, 6.90, repro,
2007-06-23,1.82, 1.96, -11.69, 2.11, 1.55, 6.93, repro,
2007-06-24,2.47, 2.51, -10.94, 2.15, 1.58, 7.13, repro,
2007-06-25,2.42, 3.29, -12.32, 2.12, 1.54, 6.93, repro,
2007-06-26,1.54, 2.78, -8.63, 2.11, 1.55, 6.99, repro,
2007-06-27,2.03, 3.12, -17.27, 2.09, 1.53, 6.84, repro,
2007-06-28,2.04, 2.33, -12.43, 2.09, 1.53, 6.88, repro,
2007-06-29,0.54, 4.34, -7.36, 2.12, 1.54, 7.00, repro,
2007-06-30,1.37, 2.70, -8.49, 2.12, 1.54, 6.93, repro,
2007-07-01,0.96, 3.27, -2.30, 2.17, 1.61, 7.18, repro,
2007-07-02,1.53, 2.74, -6.35, 2.14, 1.57, 7.10, repro,
2007-07-03,2.19, 2.17, -11.42, 2.11, 1.54, 6.92, repro,
2007-07-04,0.41, 2.62, -5.78, 2.11, 1.54, 6.96, repro,
2007-07-05,0.92, 1.56, -5.57, 2.12, 1.53, 6.90, repro,
2007-07-06,1.36, 1.85, -6.06, 2.15, 1.54, 6.98, repro,
2007-07-07,-0.26, 2.78, -3.81, 2.13, 1.57, 7.07, repro,
2007-07-08,0.94, 1.54, -4.16, 2.13, 1.55, 6.98, repro,
2007-07-09,-1.21, 2.56, -3.01, 2.10, 1.54, 6.89, repro,
2007-07-10,0.29, 2.67, -2.84, 2.10, 1.54, 6.93, repro,
2007-07-11,0.27, 2.12, -2.64, 2.15, 1.55, 7.02, repro,
2007-07-12,0.00, 1.27, -2.09, 2.13, 1.55, 7.02, repro,
2007-07-13,-0.44, 1.46, -0.13, 2.16, 1.61, 7.18, repro,
2007-07-14,-0.38, 0.82, -6.48, 2.16, 1.61, 7.17, repro,
2007-07-15,1.80, 2.74, -4.49, 2.13, 1.56, 7.10, repro,
2007-07-16,0.70, -0.31, -5.30, 2.15, 1.56, 7.06, repro,
2007-07-17,-0.37, 1.86, -1.24, 2.12, 1.55, 6.98, repro,
2007-07-18,0.41, 2.21, -3.99, 2.19, 1.60, 7.23, repro,
2007-07-19,0.47, 2.12, -6.30, 2.14, 1.55, 6.99, repro,
2007-07-20,1.62, 1.34, 1.40, 2.16, 1.61, 7.21, repro,
2007-07-21,0.31, 2.35, -1.45, 2.16, 1.60, 7.18, repro,
2007-07-22,1.01, 2.36, -6.57, 2.19, 1.57, 7.15, repro,
2007-07-23,1.36, 1.37, -7.60, 2.16, 1.61, 7.20, repro,
2007-07-24,0.72, 3.25, 4.96, 2.11, 1.54, 6.93, repro,
2007-07-25,0.47, 0.88, 3.00, 2.13, 1.56, 7.02, repro,
2007-07-26,-0.29, 1.92, -4.87, 2.13, 1.55, 7.01, repro,
2007-07-27,0.68, 1.82, -4.36, 2.16, 1.55, 7.06, repro,
2007-07-28,-0.54, 2.10, -6.59, 2.15, 1.60, 7.19, repro,
2007-07-29,-0.15, 1.96, 0.48, 2.16, 1.60, 7.14, repro,
2007-07-30,1.22, 1.69, -1.80, 2.12, 1.55, 6.94, repro,
2007-07-31,-0.20, 2.34, 1.08, 2.11, 1.55, 6.99, repro,
2007-08-01,0.01, 3.07, 1.71, 2.13, 1.56, 7.04, repro,
2007-08-02,-0.48, 2.38, 5.84, 2.13, 1.55, 7.05, repro,
2007-08-03,0.09, 1.63, 0.78, 2.11, 1.54, 6.94, repro,
2007-08-04,0.26, 1.44, 1.29, 2.12, 1.54, 6.91, repro,
2007-08-05,0.14, 2.27, 12.41, 2.14, 1.54, 6.95, repro,
2007-08-06,-0.94, 1.54, 8.16, 2.17, 1.59, 7.14, repro,
2007-08-07,0.52, 2.03, 0.47, 2.17, 1.59, 7.17, repro,
2007-08-08,1.00, 1.18, 6.19, 2.12, 1.54, 6.98, repro,
2007-08-09,1.43, 0.84, -1.25, 2.11, 1.54, 6.95, repro,
2007-08-10,0.09, 1.83, 2.99, 2.10, 1.54, 6.89, repro,
2007-08-11,0.48, 2.63, 4.74, 2.13, 1.55, 6.98, repro,
2007-08-12,2.62, 1.59, -1.26, 2.13, 1.56, 7.04, repro,
2007-08-13,-0.51, 1.63, -5.18, 2.13, 1.55, 7.01, repro,
2007-08-14,0.72, 0.21, -0.59, 2.25, 1.66, 7.38, repro,
2007-08-15,0.74, 1.78, 3.12, 2.23, 1.66, 7.34, repro,
2007-08-16,1.56, 2.17, -0.43, 2.22, 1.61, 7.23, repro,
2007-08-17,1.07, 2.31, -0.06, 2.24, 1.61, 7.27, repro,
2007-08-18,0.50, 1.23, 9.61, 2.27, 1.64, 7.52, repro,
2007-08-19,2.05, 1.14, 9.67, 2.26, 1.63, 7.45, repro,
2007-08-20,-0.67, 0.76, 6.58, 2.22, 1.60, 7.24, repro,
2007-08-21,-0.99, 0.86, 1.10, 2.21, 1.59, 7.18, repro,
2007-08-22,0.32, 1.12, 2.69, 2.22, 1.60, 7.23, repro,
2007-08-23,0.82, 2.21, 11.59, 2.17, 1.55, 7.06, repro,
2007-08-24,1.46, 1.14, 7.55, 2.29, 1.63, 7.43, repro,
2007-08-25,1.37, 1.32, -0.80, 2.21, 1.62, 7.32, repro,
2007-08-26,0.43, 1.20, 5.21, 2.27, 1.66, 7.46, repro,
2007-08-27,-0.72, 0.98, 1.02, 2.29, 1.68, 7.57, repro,
2007-08-28,-0.24, 1.75, -1.95, 2.23, 1.63, 7.34, repro,
2007-08-29,-0.30, 0.54, -0.03, 2.23, 1.62, 7.33, repro,
2007-08-30,0.26, 0.90, -0.96, 2.23, 1.62, 7.34, repro,
2007-08-31,2.37, -0.09, 4.39, 2.21, 1.62, 7.32, repro,
2007-09-01,-0.45, 1.11, 1.21, 2.23, 1.62, 7.30, repro,
2007-09-02,1.31, 0.30, -0.64, 2.23, 1.63, 7.34, repro,
2007-09-03,0.00, 0.73, 10.29, 2.22, 1.61, 7.25, repro,
2007-09-04,-0.56, -0.15, 1.45, 2.29, 1.64, 7.47, repro,
2007-09-05,-2.57, 0.71, 7.79, 2.23, 1.61, 7.27, repro,
2007-09-06,-0.69, 1.36, 4.43, 2.23, 1.61, 7.29, repro,
2007-09-07,1.27, -0.13, 3.64, 2.24, 1.62, 7.31, repro,
2007-09-08,1.81, 0.74, 0.79, 2.34, 1.71, 7.70, repro,
2007-09-09,-0.83, 0.57, 3.82, 2.38, 1.79, 7.93, repro,
2007-09-10,-0.96, 1.11, 6.11, 2.27, 1.65, 7.46, repro,
2007-09-11,-0.10, 0.90, 2.03, 2.25, 1.63, 7.35, repro,
2007-09-12,0.95, 0.21, -0.11, 2.24, 1.63, 7.33, repro,
2007-09-13,-0.83, 0.25, 4.43, 2.26, 1.67, 7.49, repro,